Location: Unspecified
(47.4992°N, 121.7766°W)
Time: 22:28:04
(UTC-07:00)

ISS - Visible Passes

Search period start: 20 April 2024 00:00
Search period end: 30 April 2024 00:00
Orbit: 412 x 418 km, 51.6° (Epoch: 20 April)

Date Brightness Start Highest point End Pass type
(mag) Time Alt. Az. Time Alt. Az. Time Alt. Az.
21 Apr -1.3 05:03:27 10° S 05:05:34 16° SE 05:07:43 10° E visible
23 Apr -2.6 05:01:16 12° SSW 05:03:58 35° SE 05:07:02 10° ENE visible
24 Apr -2.1 04:14:03 20° SSE 04:14:59 23° SE 04:17:40 10° E visible
25 Apr -1.3 03:26:42 14° ESE 03:26:42 14° ESE 03:27:53 10° E visible
25 Apr -3.8 04:59:32 15° WSW 05:02:13 76° SSE 05:05:33 10° ENE visible
26 Apr -3.3 04:12:04 36° SSW 04:13:00 49° SSE 04:16:14 10° ENE visible
27 Apr -2.3 03:24:29 28° ESE 03:24:29 28° ESE 03:26:45 10° E visible
27 Apr -3.4 04:57:18 12° W 05:00:18 60° NNW 05:03:36 10° ENE visible
28 Apr -0.8 02:36:48 11° E 02:36:48 11° E 02:37:01 10° E visible
28 Apr -3.8 04:09:37 36° WSW 04:10:51 83° NNW 04:14:11 10° ENE visible
29 Apr -3.4 03:21:49 58° ESE 03:21:49 58° ESE 03:24:41 10° ENE visible
29 Apr -2.8 04:55:00 10° W 04:58:11 42° N 05:01:24 10° ENE visible
